Time,TemperatureF,DewpointF,PressureIn,WindDirection,WindDirectionDegrees,WindSpeedMPH,WindSpeedGustMPH,Humidity,HourlyPrecipIn,Conditions,Clouds,dailyrainin,SoftwareType,DateUTC
2013-04-07 00:24:00,44.2,19.0,30.02,ESE,112,4.2,-999.0,36,-99.99,,,0.00,Acu-Link.com,2013-04-07 04:24:00,
2013-04-07 00:39:00,45.0,19.0,30.02,SSE,157,1.7,-999.0,35,-99.99,,,0.00,Acu-Link.com,2013-04-07 04:39:00,
2013-04-07 00:54:00,45.3,19.9,30.02,ESE,112,3.2,-999.0,36,-99.99,,,0.00,Acu-Link.com,2013-04-07 04:54:00,
2013-04-07 01:09:00,45.1,21.0,30.01,SE,135,2.7,-999.0,38,-99.99,,,0.00,Acu-Link.com,2013-04-07 05:09:00,
2013-04-07 01:40:00,46.0,20.6,30.01,SE,135,3.2,-999.0,36,-99.99,,,0.00,Acu-Link.com,2013-04-07 05:40:00,
2013-04-07 01:55:00,46.0,19.9,30.00,ESE,112,2.7,-999.0,35,-99.99,,,0.00,Acu-Link.com,2013-04-07 05:55:00,
2013-04-07 02:10:00,45.5,22.0,29.99,SSE,157,3.2,-999.0,39,-99.99,,,0.00,Acu-Link.com,2013-04-07 06:10:00,
2013-04-07 02:25:00,46.2,21.4,29.99,ESE,112,3.2,-999.0,37,-99.99,,,0.00,Acu-Link.com,2013-04-07 06:25:00,
2013-04-07 02:40:00,46.0,21.8,29.98,ESE,112,5.8,-999.0,38,-99.99,,,0.00,Acu-Link.com,2013-04-07 06:40:00,
2013-04-07 02:55:00,46.0,21.2,29.97,SSE,157,6.3,-999.0,37,-99.99,,,0.00,Acu-Link.com,2013-04-07 06:55:00,
2013-04-07 03:10:00,46.2,21.4,29.97,SSE,157,4.2,-999.0,37,-99.99,,,0.00,Acu-Link.com,2013-04-07 07:10:00,
2013-04-07 03:25:00,46.0,21.2,29.97,ESE,112,3.2,-999.0,37,-99.99,,,0.00,Acu-Link.com,2013-04-07 07:25:00,
2013-04-07 03:41:00,46.4,20.3,29.97,South,180,5.3,-999.0,35,-99.99,,,0.00,Acu-Link.com,2013-04-07 07:41:00,
2013-04-07 03:56:00,46.4,20.9,29.96,SE,135,6.8,-999.0,36,-99.99,,,0.00,Acu-Link.com,2013-04-07 07:56:00,
2013-04-07 04:12:00,46.4,20.3,29.96,ESE,112,2.2,-999.0,35,-99.99,,,0.00,Acu-Link.com,2013-04-07 08:12:00,
2013-04-07 04:27:00,46.2,20.7,29.96,ESE,112,2.7,-999.0,36,-99.99,,,0.00,Acu-Link.com,2013-04-07 08:27:00,
2013-04-07 04:42:00,46.2,20.7,29.95,SSE,157,2.7,-999.0,36,-99.99,,,0.00,Acu-Link.com,2013-04-07 08:42:00,
2013-04-07 04:57:00,46.2,20.7,29.95,South,180,2.7,-999.0,36,-99.99,,,0.00,Acu-Link.com,2013-04-07 08:57:00,
2013-04-07 05:12:00,45.5,21.4,29.94,ESE,112,2.7,-999.0,38,-99.99,,,0.00,Acu-Link.com,2013-04-07 09:12:00,
2013-04-07 05:28:00,44.8,20.8,29.94,SE,135,2.7,-999.0,38,-99.99,,,0.00,Acu-Link.com,2013-04-07 09:28:00,
2013-04-07 05:43:00,44.4,21.6,29.94,East,90,3.2,-999.0,40,-99.99,,,0.00,Acu-Link.com,2013-04-07 09:43:00,
2013-04-07 06:13:00,44.2,22.6,29.94,ESE,112,2.2,-999.0,42,-99.99,,,0.00,Acu-Link.com,2013-04-07 10:13:00,
2013-04-07 06:28:00,43.5,22.5,29.94,SE,135,3.2,-999.0,43,-99.99,,,0.00,Acu-Link.com,2013-04-07 10:28:00,
2013-04-07 06:43:00,43.0,23.7,29.95,East,90,2.7,-999.0,46,-99.99,,,0.00,Acu-Link.com,2013-04-07 10:43:00,
2013-04-07 06:58:00,42.8,23.5,29.95,ESE,112,2.7,-999.0,46,-99.99,,,0.00,Acu-Link.com,2013-04-07 10:58:00,
2013-04-07 07:13:00,42.4,24.6,29.95,SSE,157,2.7,-999.0,49,-99.99,,,0.00,Acu-Link.com,2013-04-07 11:13:00,
2013-04-07 07:59:00,44.4,26.0,29.94,SE,135,5.3,-999.0,48,-99.99,,,0.00,Acu-Link.com,2013-04-07 11:59:00,
2013-04-07 08:14:00,45.1,26.6,29.93,SE,135,4.2,-999.0,48,-99.99,,,0.00,Acu-Link.com,2013-04-07 12:14:00,
2013-04-07 08:44:00,46.8,28.2,29.92,East,90,4.2,-999.0,48,-99.99,,,0.00,Acu-Link.com,2013-04-07 12:44:00,
2013-04-07 08:59:00,47.3,27.6,29.91,SSE,157,3.2,-999.0,46,-99.99,,,0.00,Acu-Link.com,2013-04-07 12:59:00,
2013-04-07 09:14:00,48.4,28.6,29.90,ESE,112,3.7,-999.0,46,-99.99,,,0.00,Acu-Link.com,2013-04-07 13:14:00,
2013-04-07 09:30:00,49.8,28.8,29.89,ESE,112,4.7,-999.0,44,-99.99,,,0.00,Acu-Link.com,2013-04-07 13:30:00,
2013-04-07 09:45:00,50.7,29.6,29.89,ENE,67,5.8,-999.0,44,-99.99,,,0.00,Acu-Link.com,2013-04-07 13:45:00,
2013-04-07 10:00:00,52.3,29.3,29.87,SSE,157,3.2,-999.0,41,-99.99,,,0.00,Acu-Link.com,2013-04-07 14:00:00,
2013-04-07 10:15:00,53.8,30.1,29.87,SSE,157,3.7,-999.0,40,-99.99,,,0.00,Acu-Link.com,2013-04-07 14:15:00,
2013-04-07 10:30:00,54.5,30.1,29.85,SSE,157,4.2,-999.0,39,-99.99,,,0.00,Acu-Link.com,2013-04-07 14:30:00,
2013-04-07 10:45:00,56.5,31.2,29.84,ESE,112,4.7,-999.0,38,-99.99,,,0.00,Acu-Link.com,2013-04-07 14:45:00,
2013-04-07 11:00:00,58.1,32.0,29.83,SSE,157,3.2,-999.0,37,-99.99,,,0.00,Acu-Link.com,2013-04-07 15:00:00,
2013-04-07 11:15:00,58.3,32.1,29.82,SE,135,7.3,-999.0,37,-99.99,,,0.00,Acu-Link.com,2013-04-07 15:15:00,
2013-04-07 11:30:00,59.0,32.1,29.80,West,270,8.3,-999.0,36,-99.99,,,0.00,Acu-Link.com,2013-04-07 15:30:00,
2013-04-07 11:46:00,59.7,32.0,29.79,SE,135,3.7,-999.0,35,-99.99,,,0.00,Acu-Link.com,2013-04-07 15:46:00,
2013-04-07 12:31:00,61.2,34.0,29.77,SE,135,4.2,-999.0,36,-99.99,,,0.00,Acu-Link.com,2013-04-07 16:31:00,
2013-04-07 12:46:00,61.7,34.5,29.76,SSE,157,4.7,-999.0,36,-99.99,,,0.00,Acu-Link.com,2013-04-07 16:46:00,
2013-04-07 13:01:00,62.8,34.7,29.75,SSE,157,6.3,-999.0,35,-99.99,,,0.00,Acu-Link.com,2013-04-07 17:01:00,
2013-04-07 13:31:00,63.0,35.6,29.74,NNE,22,3.7,-999.0,36,-99.99,,,0.00,Acu-Link.com,2013-04-07 17:31:00,
2013-04-07 13:47:00,66.0,36.8,29.74,South,180,7.3,-999.0,34,-99.99,,,0.00,Acu-Link.com,2013-04-07 17:47:00,
2013-04-07 14:02:00,63.0,35.6,29.73,South,180,6.8,-999.0,36,-99.99,,,0.00,Acu-Link.com,2013-04-07 18:02:00,
2013-04-07 14:17:00,63.3,35.9,29.73,SE,135,8.9,-999.0,36,-99.99,,,0.00,Acu-Link.com,2013-04-07 18:17:00,
2013-04-07 14:32:00,63.1,35.7,29.72,SSE,157,8.9,-999.0,36,-99.99,,,0.00,Acu-Link.com,2013-04-07 18:32:00,
2013-04-07 14:47:00,66.4,37.2,29.72,SE,135,6.3,-999.0,34,-99.99,,,0.00,Acu-Link.com,2013-04-07 18:47:00,
2013-04-07 15:02:00,66.2,37.7,29.71,ESE,112,7.3,-999.0,35,-99.99,,,0.00,Acu-Link.com,2013-04-07 19:02:00,
2013-04-07 15:17:00,65.3,36.9,29.71,SSE,157,9.4,-999.0,35,-99.99,,,0.00,Acu-Link.com,2013-04-07 19:17:00,
2013-04-07 15:32:00,64.8,37.2,29.71,South,180,4.7,-999.0,36,-99.99,,,0.00,Acu-Link.com,2013-04-07 19:32:00,
2013-04-07 16:03:00,65.1,37.5,29.70,SSE,157,6.3,-999.0,36,-99.99,,,0.00,Acu-Link.com,2013-04-07 20:03:00,
2013-04-07 16:18:00,66.0,37.6,29.69,SE,135,6.8,-999.0,35,-99.99,,,0.00,Acu-Link.com,2013-04-07 20:18:00,
2013-04-07 16:33:00,67.3,38.7,29.69,SE,135,5.8,-999.0,35,-99.99,,,0.00,Acu-Link.com,2013-04-07 20:33:00,
2013-04-07 16:48:00,67.6,38.2,29.68,SSE,157,4.7,-999.0,34,-99.99,,,0.00,Acu-Link.com,2013-04-07 20:48:00,
2013-04-07 17:03:00,68.0,39.3,29.69,SE,135,4.2,-999.0,35,-99.99,,,0.00,Acu-Link.com,2013-04-07 21:03:00,
2013-04-07 17:18:00,68.7,39.9,29.68,SSE,157,3.2,-999.0,35,-99.99,,,0.00,Acu-Link.com,2013-04-07 21:18:00,
2013-04-07 17:33:00,69.8,40.2,29.68,ESE,112,4.7,-999.0,34,-99.99,,,0.00,Acu-Link.com,2013-04-07 21:33:00,
2013-04-07 17:48:00,69.3,40.5,29.68,SSE,157,4.7,-999.0,35,-99.99,,,0.00,Acu-Link.com,2013-04-07 21:48:00,
2013-04-07 18:19:00,67.1,40.0,29.68,SSE,157,6.8,-999.0,37,-99.99,,,0.00,Acu-Link.com,2013-04-07 22:19:00,
2013-04-07 18:49:00,66.2,39.8,29.69,SSE,157,3.2,-999.0,38,-99.99,,,0.00,Acu-Link.com,2013-04-07 22:49:00,
2013-04-07 19:04:00,65.3,40.4,29.70,SE,135,2.7,-999.0,40,-99.99,,,0.00,Acu-Link.com,2013-04-07 23:04:00,
2013-04-07 19:19:00,64.2,40.0,29.69,South,180,1.7,-999.0,41,-99.99,,,0.00,Acu-Link.com,2013-04-07 23:19:00,
2013-04-07 19:34:00,63.3,39.8,29.69,SSE,157,2.7,-999.0,42,-99.99,,,0.00,Acu-Link.com,2013-04-07 23:34:00,
2013-04-07 19:49:00,62.4,40.2,29.70,ESE,112,0.0,-999.0,44,-99.99,,,0.00,Acu-Link.com,2013-04-07 23:49:00,
2013-04-07 20:04:00,61.7,40.1,29.70,ENE,67,2.2,-999.0,45,-99.99,,,0.00,Acu-Link.com,2013-04-08 00:04:00,
2013-04-07 20:19:00,60.6,40.8,29.71,NE,45,0.0,-999.0,48,-99.99,,,0.00,Acu-Link.com,2013-04-08 00:19:00,
2013-04-07 20:35:00,59.7,41.0,29.72,NE,45,1.1,-999.0,50,-99.99,,,0.00,Acu-Link.com,2013-04-08 00:35:00,
2013-04-07 20:50:00,59.4,42.3,29.73,West,270,0.0,-999.0,53,-99.99,,,0.00,Acu-Link.com,2013-04-08 00:50:00,
2013-04-07 21:05:00,58.1,41.5,29.73,ENE,67,3.7,-999.0,54,-99.99,,,0.00,Acu-Link.com,2013-04-08 01:05:00,
2013-04-07 21:35:00,55.9,40.9,29.74,West,270,0.0,-999.0,57,-99.99,,,0.00,Acu-Link.com,2013-04-08 01:35:00,
2013-04-07 21:50:00,55.4,41.3,29.75,SE,135,0.0,-999.0,59,-99.99,,,0.00,Acu-Link.com,2013-04-08 01:50:00,
2013-04-07 22:05:00,58.6,42.5,29.75,ENE,67,5.3,-999.0,55,-99.99,,,0.00,Acu-Link.com,2013-04-08 02:05:00,
2013-04-07 22:21:00,60.4,43.7,29.75,West,270,1.7,-999.0,54,-99.99,,,0.00,Acu-Link.com,2013-04-08 02:21:00,
2013-04-07 22:37:00,60.3,44.1,29.75,NE,45,2.2,-999.0,55,-99.99,,,0.00,Acu-Link.com,2013-04-08 02:37:00,
2013-04-07 22:52:00,59.2,43.5,29.75,ENE,67,4.7,-999.0,56,-99.99,,,0.00,Acu-Link.com,2013-04-08 02:52:00,
2013-04-07 23:07:00,57.0,42.8,29.76,East,90,1.7,-999.0,59,-99.99,,,0.00,Acu-Link.com,2013-04-08 03:07:00,
2013-04-07 23:23:00,56.3,43.0,29.77,NE,45,1.7,-999.0,61,-99.99,,,0.00,Acu-Link.com,2013-04-08 03:23:00,
2013-04-07 23:39:00,55.0,42.6,29.77,NNE,22,0.0,-999.0,63,-99.99,,,0.00,Acu-Link.com,2013-04-08 03:39:00,